"2016-05-25 00:00:00",1663131,2.833,69.55,4.806,0.17,18.69,106.3176,15.45,16.52,59.62,0,110.7,13.13,16.25,31.6
"2016-05-25 00:00:30",1663132,3.116,76.63,5.633,0.436,18.72,106.3176,15.45,16.52,59.63,0,110.7,13.13,16.25,38.6
"2016-05-25 00:01:00",1663133,3.218,76.19,2.954,0.183,18.65,106.3176,15.45,16.52,59.7,0,110.7,13.13,16.25,38.2
"2016-05-25 00:01:30",1663134,3.353,73.97,3.2,0.43,18.66,106.3176,15.45,16.52,59.79,0,110.7,13.13,16.25,36.0
"2016-05-25 00:02:00",1663135,3.392,70.32,2.664,0.261,18.65,106.3176,15.45,16.53,59.84,0,110.7,13.13,16.25,32.3
"2016-05-25 00:02:30",1663136,4.276,62.65,5.449,0.184,18.69,106.3179,15.45,16.52,59.83,0,110.7,13.13,16.25,24.7
"2016-05-25 00:03:00",1663137,3.995,75.67,5.186,0.216,18.87,106.3187,15.45,16.53,59.76,0,110.7,13.13,16.26,37.7
"2016-05-25 00:03:30",1663138,4.528,75.18,4.201,0.28,18.91,106.3188,15.45,16.53,59.75,0,110.7,13.13,16.26,37.2
"2016-05-25 00:04:00",1663139,4.457,70.79,3.28,0.383,18.94,106.3197,15.45,16.54,59.82,0,110.7,13.13,16.26,32.8
"2016-05-25 00:04:30",1663140,4.236,71.48,2.714,0.165,18.93,106.3218,15.46,16.53,60.03,0,110.7,13.14,16.26,33.5
"2016-05-25 00:05:00",1663141,4.477,71.06,4.292,0.212,18.92,106.3238,15.46,16.53,60.25,0,110.7,13.14,16.27,33.1
"2016-05-25 00:05:30",1663142,4.053,72.68,2.169,0.277,19.02,106.3241,15.46,16.54,60.33,0,110.7,13.14,16.27,34.7
"2016-05-25 00:06:00",1663143,4.373,72.04,2.456,0.193,19.02,106.3268,15.47,16.54,60.52,0,110.7,13.14,16.28,34.0
"2016-05-25 00:06:30",1663144,4.629,70.61,3.102,0.188,18.93,106.3274,15.47,16.54,60.76,0,110.7,13.14,16.28,32.6
"2016-05-25 00:07:00",1663145,5.079,74.41,2.104,0.286,19.04,106.331,15.48,16.54,60.67,0,110.7,13.14,16.29,36.4
"2016-05-25 00:07:30",1663146,4.819,78.65,2.072,0.23,19.14,106.3325,15.48,16.54,60.54,0,110.7,13.14,16.29,40.7
"2016-05-25 00:08:00",1663147,4.458,80.1,1.595,0.315,19.26,106.3373,15.5,16.52,60.56,0,110.7,13.14,16.30,42.1
"2016-05-25 00:08:30",1663148,5.138,81.2,3.22,0.185,19.2,106.3354,15.49,16.52,60.64,0,110.7,13.14,16.30,43.2
"2016-05-25 00:09:00",1663149,4.954,79.17,4.052,0.296,19.15,106.3257,15.47,16.52,60.65,0,110.7,13.14,16.27,41.2
"2016-05-25 00:09:30",1663150,5.447,83.6,2.265,0.204,19.19,106.3155,15.44,16.51,60.48,0,110.7,13.14,16.25,45.6
"2016-05-25 00:10:00",1663151,5.103,79.83,2.075,0.215,19.1,106.3176,15.45,16.52,60.75,0,110.7,13.14,16.25,41.8
"2016-05-25 00:10:30",1663152,4.861,74.79,0.975,0.128,19.14,106.3194,15.45,16.5,60.61,0,110.7,13.14,16.26,36.8
"2016-05-25 00:11:00",1663153,4.635,81.7,4.37,0.212,19.18,106.3197,15.45,16.47,60.62,0,110.7,13.14,16.26,43.7
"2016-05-25 00:11:30",1663154,4.146,74.44,4.294,0.243,19.11,106.3175,15.45,16.47,61,0,110.7,13.14,16.25,36.4
"2016-05-25 00:12:00",1663155,4.136,74.9,8.32,0.243,19.16,106.3093,15.43,16.46,61.6,0,110.7,13.14,16.23,36.9
"2016-05-25 00:12:30",1663156,4.554,75.43,5.573,0.271,19.1,106.2921,15.38,16.47,61.82,0,110.7,13.15,16.19,37.4
"2016-05-25 00:13:00",1663157,4.419,79.01,1.823,0.574,19.06,106.2859,15.37,16.43,61.44,0,110.7,13.15,16.17,41.0
"2016-05-25 00:13:30",1663158,3.22,89.7,7.925,0.163,19.18,106.2859,15.37,16.43,60.97,0,110.7,13.15,16.17,51.7
"2016-05-25 00:14:00",1663159,3.386,90.6,2.349,0.395,19.12,106.2859,15.37,16.44,60.75,0,110.7,13.15,16.17,52.6
"2016-05-25 00:14:30",1663160,3.983,83.9,6.221,0.174,19.14,106.2856,15.36,16.42,60.74,0,110.7,13.15,16.17,45.9
"2016-05-25 00:15:00",1663161,4.253,77.21,2.56,0.189,19.02,106.2808,15.35,16.41,60.95,0,110.7,13.14,16.16,39.2
"2016-05-25 00:15:30",1663162,3.813,77.17,2.224,0.233,19.14,106.2662,15.31,16.39,61.14,0,110.7,13.14,16.12,39.2
"2016-05-25 00:16:00",1663163,3.563,78.05,1.163,0.31,19.1,106.253,15.28,16.4,61.11,0,110.7,13.14,16.09,40.1
"2016-05-25 00:16:30",1663164,3.121,78.57,2.125,0.132,19.16,106.2521,15.28,16.37,61.03,0,110.7,13.14,16.08,40.6
"2016-05-25 00:17:00",1663165,3.303,78.74,2.296,0.278,19.2,106.2521,15.28,16.36,60.98,0,110.7,13.14,16.08,40.7
"2016-05-25 00:17:30",1663166,3.115,79.5,1.591,0.211,19.2,106.2521,15.28,16.36,61.11,0,110.7,13.14,16.08,41.5
"2016-05-25 00:18:00",1663167,3.147,86.6,2.536,0.169,19.17,106.2521,15.28,16.35,61.16,0,110.7,13.14,16.08,48.6
"2016-05-25 00:18:30",1663168,3.069,86.7,1.991,0.121,19.21,106.2507,15.28,16.33,61.26,0,110.7,13.14,16.08,48.7
"2016-05-25 00:19:00",1663169,2.786,79.38,2.318,0.245,19.15,106.2448,15.26,16.32,61.29,0,110.7,13.14,16.07,41.4
"2016-05-25 00:19:30",1663170,2.783,84.5,4.445,0.208,19.21,106.238,15.24,16.32,61.23,0,110.7,13.14,16.05,46.5
"2016-05-25 00:20:00",1663171,2.815,80.1,4.525,0.15,19.15,106.2253,15.21,16.31,61.39,0,110.7,13.14,16.02,42.1
"2016-05-25 00:20:30",1663172,2.415,82.2,5.05,0.195,19.15,106.2192,15.19,16.31,61.37,0,110.7,13.15,16.00,44.2
"2016-05-25 00:21:00",1663173,3.152,78.87,4.138,0.161,19.08,106.2183,15.19,16.3,61.41,0,110.7,13.15,16.00,40.9
"2016-05-25 00:21:30",1663174,3.764,71.27,3.876,0.218,19.03,106.2183,15.19,16.3,61.37,0,110.7,13.15,16.00,33.3
"2016-05-25 00:22:00",1663175,3.654,65.27,1.921,0.118,19.1,106.2183,15.19,16.29,61.23,0,110.7,13.15,16.00,27.3
"2016-05-25 00:22:30",1663176,3.313,64.01,2.064,0.218,18.95,106.2183,15.19,16.27,61.19,0,110.7,13.15,16.00,26.0
"2016-05-25 00:23:00",1663177,3.527,63.35,1.299,0.311,18.89,106.2183,15.19,16.28,61.16,0,110.7,13.15,16.00,25.3
"2016-05-25 00:23:30",1663178,3.664,61.57,1.951,0.121,18.94,106.2189,15.19,16.27,61.1,0,110.6,13.15,16.00,23.6
"2016-05-25 00:24:00",1663179,3.707,62.72,1.286,0.094,18.99,106.2189,15.19,16.28,61.08,0,110.6,13.15,16.00,24.7
"2016-05-25 00:24:30",1663180,3.548,64.55,2.701,0.106,19.02,106.2186,15.19,16.27,61.05,0,110.6,13.15,16.00,26.6
"2016-05-25 00:25:00",1663181,3.443,63.08,4.65,0.167,18.99,106.2182,15.19,16.26,60.81,0,110.6,13.15,16.00,25.1
"2016-05-25 00:25:30",1663182,3.751,54.52,3.841,0.297,18.79,106.2157,15.19,16.25,60.91,0,110.6,13.15,15.99,16.5
"2016-05-25 00:26:00",1663183,3.945,60.3,2.683,0.182,18.86,106.2147,15.18,16.24,60.97,0,110.6,13.15,15.99,22.3
"2016-05-25 00:26:30",1663184,4.017,58.52,0.853,0.102,18.79,106.2122,15.18,16.24,60.75,0,110.6,13.15,15.98,20.5
"2016-05-25 00:27:00",1663185,3.876,57.25,1.328,0.162,18.89,106.2047,15.16,16.24,60.58,0,110.6,13.15,15.96,19.2
"2016-05-25 00:27:30",1663186,3.945,55.19,2.742,0.215,18.84,106.1934,15.13,16.23,60.39,0,110.6,13.15,15.93,17.2
"2016-05-25 00:28:00",1663187,3.814,59.93,6.848,0.263,18.95,106.1938,15.13,16.23,60.12,0,110.6,13.15,15.93,21.9
"2016-05-25 00:28:30",1663188,3.751,58.68,4.986,0.296,18.82,106.1944,15.13,16.21,60.14,0,110.6,13.15,15.94,20.7
"2016-05-25 00:29:00",1663189,3.612,60.33,4.296,0.173,18.95,106.1965,15.14,16.21,60.11,0,110.6,13.15,15.94,22.3
"2016-05-25 00:29:30",1663190,3.616,50.64,6.386,0.28,18.84,106.2007,15.15,16.21,60.04,0,110.6,13.15,15.95,12.6
"2016-05-25 00:30:00",1663191,3.412,60.8,5.496,0.141,18.89,106.2034,15.15,16.2,59.97,0,110.6,13.15,15.96,22.8
"2016-05-25 00:30:30",1663192,3.352,57.28,5.342,0.13,18.92,106.2043,15.16,16.21,60.05,0,110.6,13.15,15.96,19.3
"2016-05-25 00:31:00",1663193,3.414,61.44,5.216,0.222,19.04,106.2069,15.16,16.2,60.08,0,110.6,13.15,15.97,23.4
"2016-05-25 00:31:30",1663194,3.077,67.42,5.783,0.229,19.06,106.2108,15.17,16.19,59.96,0,110.6,13.15,15.98,29.4
"2016-05-25 00:32:00",1663195,3.196,55.19,1.92,0.167,18.99,106.2126,15.18,16.19,60.14,0,110.6,13.15,15.98,17.2
"2016-05-25 00:32:30",1663196,2.921,58,2.574,0.194,18.84,106.2144,15.18,16.2,60.31,0,110.6,13.15,15.99,20.0
"2016-05-25 00:33:00",1663197,3.202,53.72,1.506,0.127,19.03,106.2138,15.18,16.19,60.34,0,110.6,13.15,15.99,15.7
"2016-05-25 00:33:30",1663198,3.367,55.65,1.774,0.091,18.97,106.2177,15.19,16.18,60.4,0,110.6,13.15,16.00,17.7
"2016-05-25 00:34:00",1663199,3.402,51.52,1.377,0.1,18.89,106.2189,15.19,16.19,60.42,0,110.6,13.15,16.00,13.5
"2016-05-25 00:34:30",1663200,3.277,53.31,1.669,0.162,19.03,106.2204,15.2,16.17,60.44,0,110.6,13.15,16.00,15.3
"2016-05-25 00:35:00",1663201,3.495,48.56,2.728,0.149,18.98,106.2199,15.2,16.18,60.46,0,110.6,13.15,16.00,10.6
"2016-05-25 00:35:30",1663202,3.456,47.03,1.62,0.112,18.98,106.2139,15.18,16.17,60.39,0,110.6,13.15,15.99,9.0
"2016-05-25 00:36:00",1663203,3.446,50.18,1.217,0.058,19.12,106.2058,15.16,16.17,60.41,0,110.6,13.15,15.96,12.2
"2016-05-25 00:36:30",1663204,3.735,49.41,2.511,0.17,18.93,106.1996,15.14,16.15,60.33,0,110.6,13.15,15.95,11.4
"2016-05-25 00:37:00",1663205,3.848,45.51,1.734,0.177,19.02,106.1928,15.13,16.16,60.17,0,110.6,13.15,15.93,7.5
"2016-05-25 00:37:30",1663206,3.814,47.29,2.326,0.204,18.98,106.1894,15.12,16.17,60.12,0,110.6,13.15,15.92,9.3
"2016-05-25 00:38:00",1663207,4.038,44.8,1.885,0.21,18.85,106.1866,15.11,16.16,59.94,0,110.6,13.15,15.92,6.8
"2016-05-25 00:38:30",1663208,3.742,51.25,2.584,0.092,18.79,106.1866,15.11,16.15,59.98,0,110.6,13.15,15.92,13.2
"2016-05-25 00:39:00",1663209,3.941,56.16,2.648,0.124,19.11,106.1866,15.11,16.15,60.05,0,110.6,13.15,15.92,18.2
"2016-05-25 00:39:30",1663210,4.376,59.5,3.093,0.139,19,106.1866,15.11,16.16,59.49,0,110.6,13.15,15.92,21.5
"2016-05-25 00:40:00",1663211,4.446,65.33,3.244,0.157,19.08,106.1866,15.11,16.13,58.63,0,110.6,13.16,15.92,27.3
"2016-05-25 00:40:30",1663212,4.247,69.06,2.835,0.141,19.23,106.1866,15.11,16.14,57.74,0,110.6,13.16,15.92,31.1
"2016-05-25 00:41:00",1663213,4.355,71.95,2.679,0.116,19.12,106.1866,15.11,16.14,57.14,0,110.6,13.16,15.92,33.9
"2016-05-25 00:41:30",1663214,4.625,72.18,1.895,0.273,19.17,106.1866,15.11,16.13,56.34,0,110.6,13.16,15.92,34.2
"2016-05-25 00:42:00",1663215,4.78,72.56,4.164,0.201,19.07,106.1866,15.11,16.13,56.11,0,110.6,13.16,15.92,34.6
"2016-05-25 00:42:30",1663216,5.078,62.77,2.486,0.35,18.85,106.1866,15.11,16.13,56.74,0,110.6,13.16,15.92,24.8
"2016-05-25 00:43:00",1663217,4.99,61.89,2.408,0.17,18.88,106.1866,15.11,16.12,57.11,0,110.6,13.16,15.92,23.9
"2016-05-25 00:43:30",1663218,5.049,59.64,4.572,0.169,18.83,106.1866,15.11,16.13,57.39,0,110.6,13.16,15.92,21.6
"2016-05-25 00:44:00",1663219,5.23,64.32,2.347,0.12,18.83,106.1866,15.11,16.13,57.33,0,110.6,13.16,15.92,26.3
"2016-05-25 00:44:30",1663220,5.039,66.64,1.248,0.183,18.87,106.1866,15.11,16.13,57.29,0,110.6,13.16,15.92,28.6
"2016-05-25 00:45:00",1663221,5.12,66.21,2.783,0.243,18.88,106.1866,15.11,16.13,57.33,0,110.6,13.16,15.92,28.2
"2016-05-25 00:45:30",1663222,5.133,63.23,3.942,0.279,18.82,106.1866,15.11,16.15,57.09,0,110.6,13.16,15.92,25.2
"2016-05-25 00:46:00",1663223,5.429,63.83,2.343,0.115,18.74,106.1866,15.11,16.13,57.46,0,110.6,13.16,15.92,25.8
"2016-05-25 00:46:30",1663224,5.502,59.28,1.405,0.099,18.7,106.1866,15.11,16.13,57.46,0,110.6,13.16,15.92,21.3
"2016-05-25 00:47:00",1663225,5.749,58.68,1.404,0.112,18.73,106.1866,15.11,16.14,57.67,0,110.6,13.16,15.92,20.7
"2016-05-25 00:47:30",1663226,5.621,60.22,1.668,0.137,18.69,106.1866,15.11,16.14,57.81,0,110.6,13.16,15.92,22.2
"2016-05-25 00:48:00",1663227,5.623,59.34,2.515,0.164,18.69,106.1866,15.11,16.14,57.99,0,110.6,13.16,15.92,21.3
"2016-05-25 00:48:30",1663228,5.479,59.52,4.09,0.189,18.76,106.1855,15.11,16.14,58,0,110.6,13.16,15.91,21.5
"2016-05-25 00:49:00",1663229,5.573,59.78,1.937,0.166,18.69,106.1813,15.1,16.13,58.02,0,110.6,13.16,15.90,21.8
"2016-05-25 00:49:30",1663230,5.307,61.13,3.089,0.214,18.82,106.177,15.09,16.13,57.93,0,110.6,13.16,15.89,23.1
"2016-05-25 00:50:00",1663231,5.275,62.1,3.42,0.334,18.9,106.1669,15.06,16.11,57.74,0,110.6,13.16,15.86,24.1
"2016-05-25 00:50:30",1663232,5.632,58.5,2.837,0.154,18.82,106.1553,15.03,16.11,57.72,0,110.6,13.16,15.84,20.5
"2016-05-25 00:51:00",1663233,5.395,61.23,3.464,0.16,18.91,106.1531,15.02,16.11,57.66,0,110.6,13.16,15.83,23.2
"2016-05-25 00:51:30",1663234,5.339,63.75,1.643,0.151,18.9,106.1528,15.02,16.1,57.48,0,110.6,13.16,15.83,25.8
"2016-05-25 00:52:00",1663235,5.219,63.21,3.187,0.37,18.92,106.1528,15.02,16.09,57.3,0,110.6,13.16,15.83,25.2
"2016-05-25 00:52:30",1663236,5.162,65.46,4.213,0.292,18.93,106.1531,15.02,16.09,57.27,0,110.6,13.16,15.83,27.5
"2016-05-25 00:53:00",1663237,4.919,71.37,3.672,0.116,19.03,106.1537,15.03,16.07,57.17,0,110.6,13.16,15.83,33.4
"2016-05-25 00:53:30",1663238,4.916,65.02,4.066,0.132,18.96,106.1537,15.03,16.07,57.09,0,110.6,13.16,15.83,27.0
"2016-05-25 00:54:00",1663239,5.122,63.95,3.823,0.274,18.99,106.1531,15.02,16.07,57.01,0,110.6,13.16,15.83,26.0
"2016-05-25 00:54:30",1663240,5.015,64.58,3.99,0.215,18.99,106.1537,15.03,16.07,56.71,0,110.6,13.16,15.83,26.6
"2016-05-25 00:55:00",1663241,5.264,61.82,4.416,0.198,18.96,106.1532,15.03,16.06,56.87,0,110.6,13.16,15.83,23.8
"2016-05-25 00:55:30",1663242,5.528,58.23,3.094,0.306,18.89,106.1515,15.02,16.04,57.07,0,110.6,13.17,15.83,20.2
"2016-05-25 00:56:00",1663243,5.559,52.3,3.688,0.286,18.76,106.1504,15.02,16.07,57.32,0,110.6,13.17,15.82,14.3
"2016-05-25 00:56:30",1663244,5.577,51.38,3.891,0.154,18.81,106.1485,15.01,16.06,57.37,0,110.6,13.17,15.82,13.4
"2016-05-25 00:57:00",1663245,5.775,50.02,2.43,0.293,18.87,106.1445,15,16.06,57.32,0,110.6,13.17,15.81,12.0
"2016-05-25 00:57:30",1663246,5.354,48.6,4.172,0.207,18.92,106.1428,15,16.05,57.22,0,110.6,13.17,15.80,10.6
"2016-05-25 00:58:00",1663247,5.213,50.08,4.104,0.237,18.94,106.1369,14.98,16.04,57.11,0,110.6,13.17,15.79,12.1
"2016-05-25 00:58:30",1663248,5.202,48.45,4.591,0.185,18.94,106.1302,14.97,16.03,57.04,0,110.6,13.17,15.77,10.5
"2016-05-25 00:59:00",1663249,5.29,45.68,1.838,0.202,18.95,106.1294,14.96,16.03,56.91,0,110.6,13.17,15.77,7.7
"2016-05-25 00:59:30",1663250,5.181,47.56,4.748,0.223,18.98,106.1298,14.97,16.01,56.88,0,110.6,13.17,15.77,9.6
"2016-05-25 01:00:00",1663251,4.856,46.76,3.887,0.147,18.93,106.1283,14.96,16.02,56.94,0,110.6,13.17,15.77,8.8
"2016-05-25 01:00:30",1663252,4.264,45.16,2.349,0.165,19.03,106.1292,14.96,16.01,56.91,0,110.6,13.17,15.77,7.2
"2016-05-25 01:01:00",1663253,4.505,42.09,1.476,0.321,18.91,106.1316,14.97,15.98,56.9,0,110.6,13.17,15.77,4.1
"2016-05-25 01:01:30",1663254,4.329,39.56,1.424,0.34,18.86,106.1327,14.97,15.99,57,0,110.6,13.17,15.78,1.6
"2016-05-25 01:02:00",1663255,3.601,36.74,1.443,0.397,18.85,106.1351,14.98,16,57.05,0,110.6,13.17,15.78,358.7
"2016-05-25 01:02:30",1663256,3.595,36.28,1.765,0.31,18.86,106.1366,14.98,15.99,57.1,0,110.6,13.17,15.79,358.3
"2016-05-25 01:03:00",1663257,3.454,35.74,1.242,0.304,18.85,106.1378,14.99,15.99,57.09,0,110.6,13.17,15.79,357.7
"2016-05-25 01:03:30",1663258,3.441,37.4,2.503,0.453,18.9,106.1374,14.98,15.99,57.05,0,110.6,13.17,15.79,359.4
"2016-05-25 01:04:00",1663259,3.266,37.35,2.742,0.525,18.9,106.1369,14.98,15.98,57,0,110.6,13.17,15.79,359.4
"2016-05-25 01:04:30",1663260,3.363,40.68,2.23,0.358,18.99,106.1351,14.98,15.98,56.98,0,110.6,13.17,15.78,2.7
"2016-05-25 01:05:00",1663261,3.332,42.68,1.83,0.12,18.97,106.136,14.98,15.99,57.02,0,110.6,13.17,15.79,4.7
"2016-05-25 01:05:30",1663262,3.498,40.18,1.693,0.311,18.99,106.1387,14.99,15.98,57.02,0,110.6,13.17,15.79,2.2
"2016-05-25 01:06:00",1663263,3.309,40.9,3.796,0.349,19.03,106.1373,14.98,15.96,56.97,0,110.6,13.17,15.79,2.9
"2016-05-25 01:06:30",1663264,3.228,40.12,3.153,0.279,19.12,106.1369,14.98,15.96,57.08,0,110.6,13.17,15.79,2.1
"2016-05-25 01:07:00",1663265,2.986,43.24,6.513,0.248,19.12,106.1358,14.98,15.98,57.09,0,110.6,13.16,15.79,5.2
"2016-05-25 01:07:30",1663266,3.598,43.11,3.539,0.267,19.07,106.1345,14.98,15.95,57.11,0,110.6,13.16,15.78,5.1
"2016-05-25 01:08:00",1663267,3.313,45.15,4.636,0.238,19.18,106.1322,14.97,15.98,57.11,0,110.6,13.16,15.78,7.2
"2016-05-25 01:08:30",1663268,3.127,40.03,2.278,0.363,19.03,106.1362,14.98,15.97,57.08,0,110.6,13.16,15.79,2.0
"2016-05-25 01:09:00",1663269,3.825,41.73,1.526,0.141,19.1,106.1394,14.99,15.97,57.17,0,110.6,13.16,15.79,3.7
"2016-05-25 01:09:30",1663270,3.926,40.38,1.503,0.271,19.13,106.1397,14.99,15.96,57.15,0,110.6,13.16,15.80,2.4
"2016-05-25 01:10:00",1663271,3.933,40.25,2.72,0.375,19.11,106.1416,15,15.98,56.96,0,110.6,13.16,15.80,2.2
"2016-05-25 01:10:30",1663272,4.098,40.03,1.633,0.305,19.07,106.1414,14.99,15.97,56.85,0,110.6,13.16,15.80,2.0
"2016-05-25 01:11:00",1663273,4.616,42.32,1.579,0.186,19.21,106.1425,15,15.97,56.68,0,110.6,13.16,15.80,4.3
"2016-05-25 01:11:30",1663274,4.748,42.89,2.169,0.208,19.2,106.1402,14.99,15.97,56.62,0,110.6,13.17,15.80,4.9
"2016-05-25 01:12:00",1663275,4.873,41.25,1.484,0.276,19.03,106.1439,15,15.96,56.7,0,110.6,13.17,15.81,3.2
"2016-05-25 01:12:30",1663276,5.275,40.14,1.137,0.204,18.98,106.1445,15,15.97,56.8,0,110.6,13.17,15.81,2.1
"2016-05-25 01:13:00",1663277,5.429,40.93,0.76,0.117,19.06,106.1411,14.99,15.97,56.82,0,110.6,13.17,15.80,2.9
"2016-05-25 01:13:30",1663278,5.553,42.04,0.779,0.092,19.07,106.136,14.98,15.97,56.82,0,110.6,13.17,15.79,4.0
"2016-05-25 01:14:00",1663279,5.453,43.02,1.006,0.102,19.09,106.1275,14.96,15.97,56.84,0,110.6,13.17,15.76,5.0
"2016-05-25 01:14:30",1663280,5.623,42.85,0.854,0.102,19.06,106.1228,14.95,15.97,56.96,0,110.6,13.17,15.75,4.8
"2016-05-25 01:15:00",1663281,5.507,45.27,1.71,0.133,19.08,106.1211,14.94,15.97,57.09,0,110.6,13.17,15.75,7.3
"2016-05-25 01:15:30",1663282,5.491,46.01,1.183,0.117,19.01,106.1211,14.94,15.95,57.13,0,110.6,13.17,15.75,8.0
"2016-05-25 01:16:00",1663283,5.379,46.88,0.95,0.071,19.07,106.1211,14.94,15.96,57.09,0,110.6,13.17,15.75,8.9
"2016-05-25 01:16:30",1663284,5.171,46.8,1.684,0.127,19.14,106.1211,14.94,15.95,56.99,0,110.6,13.17,15.75,8.8
"2016-05-25 01:17:00",1663285,5.218,43.86,1.755,0.138,19.05,106.1211,14.94,15.95,57.18,0,110.6,13.17,15.75,5.9
"2016-05-25 01:17:30",1663286,5.049,42.55,1.234,0.149,19.08,106.1211,14.94,15.95,57.44,0,110.6,13.17,15.75,4.5
"2016-05-25 01:18:00",1663287,5.008,40.78,1.25,0.21,19.12,106.1211,14.94,15.95,57.59,0,110.6,13.17,15.75,2.8
"2016-05-25 01:18:30",1663288,5.286,40.74,0.802,0.252,19.12,106.1211,14.94,15.94,58.01,0,110.6,13.17,15.75,2.7
"2016-05-25 01:19:00",1663289,4.65,37.92,1.629,0.315,19.06,106.1211,14.94,15.96,58.34,0,110.6,13.17,15.75,359.9
"2016-05-25 01:19:30",1663290,4.895,39.11,1.26,0.29,19.15,106.1211,14.94,15.94,58.47,0,110.6,13.17,15.75,1.1
"2016-05-25 01:20:00",1663291,4.76,39.67,1.184,0.261,19.2,106.1211,14.94,15.94,58.12,0,110.6,13.17,15.75,1.7
"2016-05-25 01:20:30",1663292,4.445,39.2,2.371,0.449,19.22,106.1205,14.94,15.93,57.9,0,110.6,13.17,15.75,1.2
"2016-05-25 01:21:00",1663293,4.564,41.54,1.374,0.175,19.31,106.1185,14.94,15.93,57.17,0,110.6,13.18,15.74,3.5
"2016-05-25 01:21:30",1663294,4.399,41.58,1.693,0.154,19.35,106.1188,14.94,15.92,56.09,0,110.6,13.17,15.74,3.6
"2016-05-25 01:22:00",1663295,4.007,41.59,2.58,0.276,19.25,106.1191,14.94,15.93,56.06,0,110.6,13.17,15.74,3.6
"2016-05-25 01:22:30",1663296,3.881,42.31,1.299,0.148,19.29,106.1194,14.94,15.92,55.73,0,110.6,13.17,15.74,4.3
"2016-05-25 01:23:00",1663297,3.627,44.15,2.807,0.203,19.32,106.1199,14.94,15.91,54.82,0,110.6,13.17,15.74,6.2
"2016-05-25 01:23:30",1663298,3.7,45.69,1.921,0.12,19.35,106.1208,14.94,15.91,54.1,0,110.6,13.17,15.75,7.7
"2016-05-25 01:24:00",1663299,3.438,46.69,1.755,0.117,19.33,106.1211,14.94,15.91,54.07,0,110.6,13.17,15.75,8.7
"2016-05-25 01:24:30",1663300,3.185,48.75,2.07,0.139,19.34,106.1211,14.94,15.92,53.94,0,110.6,13.17,15.75,10.8
"2016-05-25 01:25:00",1663301,2.935,49.75,2.473,0.279,19.26,106.1211,14.94,15.93,54.12,0,110.6,13.17,15.75,11.8
"2016-05-25 01:25:30",1663302,2.828,60.72,6.638,0.179,19.39,106.1211,14.94,15.93,53.47,0,110.6,13.17,15.75,22.7
"2016-05-25 01:26:00",1663303,2.685,70.75,2.666,0.071,19.81,106.1211,14.94,15.93,52.6,0,110.6,13.17,15.75,32.8
"2016-05-25 01:26:30",1663304,2.597,78.23,2.129,0.05,19.79,106.1211,14.94,15.94,52.18,0,110.6,13.17,15.75,40.2
"2016-05-25 01:27:00",1663305,2.736,84.2,1.853,0.059,19.85,106.1213,14.94,15.93,51.95,0,110.6,13.17,15.75,46.2
"2016-05-25 01:27:30",1663306,2.812,89.2,2.498,0.036,19.77,106.1278,14.96,15.95,51.73,0,110.6,13.17,15.76,51.2
"2016-05-25 01:28:00",1663307,2.825,96.6,1.871,0.059,19.69,106.1433,15,15.97,51.84,0,110.6,13.17,15.80,58.6
"2016-05-25 01:28:30",1663308,2.968,100.5,0.86,0.042,19.56,106.1515,15.02,15.98,51.95,0,110.6,13.17,15.83,62.5
"2016-05-25 01:29:00",1663309,2.991,103.8,2.179,0.042,19.43,106.1549,15.03,15.98,51.77,0,110.6,13.17,15.83,65.8
"2016-05-25 01:29:30",1663310,2.846,107.4,2.333,0.131,19.39,106.1549,15.03,15.99,51.5,0,110.6,13.18,15.83,69.4
"2016-05-25 01:30:00",1663311,3.215,111.5,1.924,0.105,19.65,106.1591,15.04,16.01,51.64,0,110.6,13.18,15.84,73.5
"2016-05-25 01:30:30",1663312,3.14,107.6,4.964,0.157,19.47,106.174,15.08,16.03,51.98,0,110.6,13.18,15.88,69.6
"2016-05-25 01:31:00",1663313,3.288,110.7,0.945,0.128,19.54,106.1831,15.1,16.03,51.76,0,110.6,13.18,15.91,72.7
"2016-05-25 01:31:30",1663314,3.39,110,0.856,0.062,19.49,106.1887,15.12,16.05,51.41,0,110.6,13.18,15.92,72.0
"2016-05-25 01:32:00",1663315,3.476,109.5,0.768,0.051,19.23,106.1887,15.12,16.09,51.32,0,110.6,13.18,15.92,71.5
"2016-05-25 01:32:30",1663316,3.267,106.2,1.47,0.096,19.59,106.1893,15.12,16.08,51.04,0,110.6,13.18,15.92,68.2
"2016-05-25 01:33:00",1663317,3.329,103.7,2.094,0.16,19.38,106.2042,15.16,16.11,50.75,0,110.6,13.18,15.96,65.7
"2016-05-25 01:33:30",1663318,3.526,100.9,1.688,0.111,19.29,106.216,15.19,16.13,51.15,0,110.6,13.18,15.99,62.9
"2016-05-25 01:34:00",1663319,3.352,96.1,2.75,0.104,19.41,106.2225,15.2,16.14,51.53,0,110.6,13.18,16.01,58.1
"2016-05-25 01:34:30",1663320,3.562,94,1.696,0.097,19.39,106.2225,15.2,16.16,51.67,0,110.6,13.18,16.01,56.0
"2016-05-25 01:35:00",1663321,3.949,92.3,1.3,0.131,19.42,106.2225,15.2,16.17,51.91,0,110.6,13.18,16.01,54.3
"2016-05-25 01:35:30",1663322,4.103,90.8,1.643,0.141,19.42,106.2225,15.2,16.19,52.12,0,110.6,13.18,16.01,52.8
"2016-05-25 01:36:00",1663323,4.221,89.3,2.083,0.146,19.46,106.2236,15.21,16.19,52.24,0,110.6,13.18,16.01,51.3
"2016-05-25 01:36:30",1663324,4.22,85.8,2.566,0.146,19.4,106.2313,15.23,16.22,52.35,0,110.6,13.18,16.03,47.8
"2016-05-25 01:37:00",1663325,4.302,84.1,2.915,0.115,19.43,106.2437,15.26,16.23,52.43,0,110.6,13.18,16.06,46.1
"2016-05-25 01:37:30",1663326,4.407,77.69,1.052,0.071,19.33,106.2541,15.28,16.24,52.32,0,110.6,13.18,16.09,39.7
"2016-05-25 01:38:00",1663327,4.424,70.21,3.63,0.085,19.22,106.2563,15.29,16.25,52.2,0,110.6,13.18,16.09,32.2
"2016-05-25 01:38:30",1663328,4.526,60.86,2.417,0.063,19,106.2563,15.29,16.26,52.25,0,110.6,13.18,16.09,22.9
"2016-05-25 01:39:00",1663329,4.846,53.22,1.484,0.119,18.95,106.2563,15.29,16.27,53.53,0,110.6,13.18,16.09,15.2
"2016-05-25 01:39:30",1663330,5.235,50.32,0.924,0.086,18.82,106.2563,15.29,16.29,55.37,0,110.6,13.18,16.09,12.3
"2016-05-25 01:40:00",1663331,5.396,45.68,1.193,0.088,18.91,106.2566,15.29,16.3,56.25,0,110.6,13.18,16.10,7.7
"2016-05-25 01:40:30",1663332,5.509,42.11,0.923,0.078,18.87,106.2561,15.29,16.31,56.57,0,110.6,13.17,16.09,4.1
"2016-05-25 01:41:00",1663333,4.563,37.82,1.851,0.47,18.89,106.2397,15.25,16.31,56.69,0,110.6,13.17,16.05,359.8
"2016-05-25 01:41:30",1663334,4.438,29.28,2.512,0.563,18.73,106.2231,15.2,16.3,57.01,0,110.6,13.17,16.01,351.3
"2016-05-25 01:42:00",1663335,5.689,25.59,1.187,0.295,18.75,106.2237,15.21,16.29,57.22,0,110.6,13.17,16.01,347.6
"2016-05-25 01:42:30",1663336,5.915,23.18,1.105,0.3,18.65,106.2225,15.2,16.28,57.3,0,110.6,13.17,16.01,345.2
"2016-05-25 01:43:00",1663337,5.078,22.65,1.208,0.242,18.69,106.2221,15.2,16.26,57.34,0,110.6,13.17,16.01,344.6
"2016-05-25 01:43:30",1663338,4.052,19.17,1.869,0.296,18.77,106.2065,15.16,16.24,57.42,0,110.6,13.17,15.97,341.2
"2016-05-25 01:44:00",1663339,3.448,16.13,2.656,0.246,18.79,106.1916,15.12,16.24,57.52,0,110.6,13.17,15.93,338.1
"2016-05-25 01:44:30",1663340,3.533,13.56,2.434,0.326,18.68,106.1923,15.13,16.22,57.59,0,110.6,13.17,15.93,335.6
"2016-05-25 01:45:00",1663341,5.012,21.2,6.338,1.34,19.95,106.1938,15.13,16.31,58.12,0,110.6,13.12,15.93,343.2
"2016-05-25 01:45:30",1663342,5.472,22.14,8.22,1.399,20.19,106.1795,15.09,16.35,58.5,0,110.6,13.13,15.90,344.1
"2016-05-25 01:46:00",1663343,5.018,14.01,7.023,1.411,20.51,106.1643,15.05,16.37,58.33,0,110.6,13.13,15.86,336.0
"2016-05-25 01:46:30",1663344,4.116,6.238,6.16,1.292,18.83,106.1598,15.04,16.17,57.46,0,110.6,13.13,15.85,328.2
"2016-05-25 01:47:00",1663345,3.225,5.377,2.309,0.368,17.65,106.1379,14.99,16.11,56.89,0,110.6,13.18,15.79,327.4
"2016-05-25 01:47:30",1663346,2.932,4.294,1.476,0.255,17.69,106.1315,14.97,16.08,56.65,0,110.6,13.18,15.77,326.3